[[{"header":{"parameterUnit":"m.s-1","parameterCategory":1,"la1":30.2991,"la2":30.254,"lo1":-89.0895,"lo2":-89.0444,"dy":0.0017,"dx":0.0017,"nx":28,"ny":28,"refTime":"2023-08-30T03:00:00:Z","depth":0,"parameterNumber":2,"parameterNumberName":"U-component_of_WINDS"},"data":[0,0,0,0,0,0,0,0,0,0,0,0,0,0,0,0,0,0,0,0,0,0,0,0,0,0,0,0,0,0,0,0,0,0,0,0,0,0,0,0,0,0,0,0,0,0,0,0,0,0,0,0,0,0,0,0,0,0,0.569,0.569,0,0.5661,0.5661,0.566,0.5627,0.5627,0.5626,0.5626,0.5597,0.5596,0.5596,0,0,0,0,0,0,0,0,0,0,0,0,0,0.5718,0.5718,0.569,0.569,0.5689,0.5661,0.5661,0.566,0.5628,0.5627,0.5626,0.5626,0.5597,0.5596,0.5596,0,0,0,0,0,0,0,0,0,0,0,0,0,0.5699,0.5718,0.569,0.567,0.5667,0.5661,0.5661,0.566,0.5628,0.5627,0.5626,0.5626,0.5597,0.5596,0.5596,0.5607,0,0,0.5594,0.5594,0,0,0,0,0,0,0,0,0.5701,0.5698,0.5673,0.5671,0.5669,0.5647,0.566,0.5642,0.5628,0.5643,0.5626,0.5625,0.5614,0.5612,0.5608,0.5606,0.5605,0.5594,0.5594,0.5594,0.5594,0,0,0,0,0,0,0,0.5702,0.57,0.5678,0.5673,0.567,0.5662,0.5659,0.5656,0.5633,0.5641,0.5639,0.5636,0.5613,0.5609,0.5607,0.5604,0.5594,0.5594,0.5593,0.5593,0.5612,0.5612,0,0,0,0,0,0,0.5706,0.5701,0.5679,0.5678,0.5683,0.5662,0.5658,0.5655,0.5633,0.5629,0.5637,0.5635,0.561,0.5608,0.5606,0.5619,0.5594,0.5593,0.5593,0.5611,0.5612,0.5613,0,0,0,0,0,0,0.5707,0.5705,0.5681,0.5689,0.5685,0.5663,0.5659,0.5655,0.5651,0.5629,0.5625,0.5637,0.5609,0.5607,0.5608,0.5617,0.5593,0.5593,0.561,0.5611,0.5612,0.5644,0,0,0,0,0,0,0.5708,0.5705,0.5709,0.5689,0.5685,0.5682,0.5659,0.5655,0.565,0.5647,0.5628,0.5624,0.5608,0.5609,0.5607,0.5616,0.5592,0.5609,0.5611,0.5612,0.5642,0.5647,0.565,0,0,0,0,0,0.5709,0.5719,0.5709,0.5707,0.5689,0.5683,0.568,0.5662,0.5651,0.5655,0.5641,0.5625,0.5617,0.5609,0.5607,0.5616,0.5608,0.561,0.5612,0.5641,0.5646,0.565,0,0,0,0,0,0,0.574,0.5716,0.5705,0.5708,0.5698,0.5677,0.5681,0.5668,0.566,0.5658,0.5635,0.5631,0.5635,0.5626,0.5617,0.5627,0.561,0.5612,0.5633,0.5638,0.5641,0.5643,0.5592,0,0,0,0,0,0.5747,0.5744,0.5723,0.5728,0.5724,0.5704,0.57,0.5687,0.5676,0.5671,0.5657,0.5647,0.5642,0.5639,0.5634,0.5641,0.5637,0.5647,0.5651,0.5654,0.5655,0.566,0.5664,0.5619,0.5619,0.5618,0,0,0.5762,0.5748,0.5748,0.5734,0.5725,0.5723,0.57,0.5698,0.5697,0.5671,0.5671,0.5661,0.5648,0.5652,0.5654,0.5645,0.5667,0.5656,0.5659,0.5659,0.5662,0.5667,0.567,0.562,0.562,0.5619,0,0,0.5788,0.5777,0.5781,0.5772,0.5758,0.5745,0.5746,0.5728,0.572,0.572,0.5701,0.5699,0.5691,0.5683,0.5677,0.5703,0.5688,0.5701,0.5721,0.5726,0.573,0.5733,0.5743,0.5746,0.5703,0.5703,0.5703,0,0.5808,0.5804,0.5784,0.5784,0.5779,0.5756,0.576,0.5753,0.5738,0.5735,0.5725,0.5716,0.5705,0.5708,0.5714,0.5711,0.5712,0.5703,0.5731,0.5734,0.5736,0.5745,0.5749,0.5705,0.5705,0.5704,0.5704,0,0.583,0.5827,0.5832,0.5819,0.5814,0.5816,0.5798,0.5796,0.5784,0.5772,0.5773,0.576,0.5751,0.5751,0.5739,0.5753,0.5748,0.5735,0.5718,0.5743,0.5751,0.5754,0.5707,0.5707,0.5706,0.5706,0,0,0.5873,0.585,0.5852,0.5846,0.583,0.5828,0.583,0.5822,0.5821,0.5812,0.5813,0.5808,0.5796,0.579,0.5777,0.5781,0.5803,0.5768,0.5767,0.5775,0.5819,0.5829,0.5833,0.5794,0.5794,0.5795,0.582,0,0.5896,0.5897,0.5881,0.5886,0.5885,0.5864,0.5865,0.5856,0.5845,0.5843,0.5831,0.5828,0.5812,0.5809,0.5812,0.58,0.5812,0.5798,0.5795,0.5795,0.5799,0.5837,0.5848,0.5872,0.5823,0.5824,0.5824,0,0.5923,0.5916,0.5922,0.5907,0.5906,0.5907,0.59,0.5897,0.5887,0.5879,0.5874,0.5859,0.586,0.5844,0.5846,0.5837,0.5835,0.5829,0.583,0.5829,0.5811,0.5838,0.588,0.5884,0.5829,0.5829,0.5828,0,0.5955,0.5947,0.595,0.5946,0.5928,0.593,0.5923,0.5911,0.5908,0.5902,0.59,0.5894,0.589,0.5886,0.5871,0.586,0.5875,0.5857,0.5869,0.587,0.5873,0.5873,0.5915,0.5872,0.5872,0.5871,0.5871,0,0.5982,0.5987,0.5964,0.5966,0.5971,0.5952,0.5958,0.5948,0.5939,0.5939,0.5921,0.5921,0.5901,0.5899,0.5887,0.5891,0.589,0.5884,0.5881,0.5886,0.5887,0.5884,0.5882,0.5872,0.5872,0.5872,0.5872,0,0.6018,0.6003,0.6005,0.5989,0.5985,0.5989,0.5975,0.5977,0.5966,0.5966,0.5965,0.5948,0.5946,0.593,0.5924,0.5916,0.5925,0.5918,0.5928,0.5926,0.5939,0.5938,0.5981,0.5986,0.5939,0.594,0.594,0,0.6037,0.604,0.6025,0.6023,0.6017,0.6015,0.6013,0.5995,0.5993,0.5982,0.5985,0.5981,0.5977,0.5975,0.5962,0.5957,0.5951,0.5966,0.595,0.5955,0.5951,0.5951,0.5952,0.5969,0.597,0.5971,0.5971,0,0.6072,0.6065,0.6061,0.6055,0.6053,0.6047,0.6041,0.6041,0.6022,0.602,0.6018,0.6015,0.6009,0.6006,0.6,0.5993,0.5979,0.5976,0.5979,0.5984,0.599,0.5987,0.5938,0.5975,0.5975,0.5975,0.5974,0.5974,0.61,0.6102,0.6092,0.6089,0.6083,0.6078,0.6078,0.6068,0.6066,0.606,0.605,0.6049,0.604,0.603,0.6025,0.6024,0.6016,0.6019,0.602,0.6022,0.6024,0.599,0.6023,0.6023,0.6023,0.6022,0.6022,0,0.6134,0.6127,0.6125,0.6117,0.6115,0.6102,0.6095,0.6094,0.6094,0.6087,0.6084,0.6081,0.6079,0.6066,0.6062,0.6065,0.6058,0.6064,0.6064,0.6063,0.6032,0.603,0.6069,0.6069,0.6069,0.6069,0.6069,0.6069,0.6152,0.6156,0.6147,0.6148,0.6141,0.614,0.6137,0.6133,0.6127,0.6126,0.6123,0.6115,0.6106,0.6102,0.6099,0.6096,0.6095,0.6104,0.6098,0.6069,0.6065,0.606,0.6059,0.6104,0.6104,0.6129,0.6129,0.613]},{"header":{"parameterUnit":"m.s-1","parameterCategory":1,"la1":30.2991,"la2":30.254,"lo1":-89.0895,"lo2":-89.0444,"dy":0.0017,"dx":0.0017,"nx":28,"ny":28,"refTime":"2023-08-30T03:00:00:Z","depth":0,"parameterNumber":3,"parameterNumberName":"V-component_of_WINDS"},"data":[0,0,0,0,0,0,0,0,0,0,0,0,0,0,0,0,0,0,0,0,0,0,0,0,0,0,0,0,0,0,0,0,0,0,0,0,0,0,0,0,0,0,0,0,0,0,0,0,0,0,0,0,0,0,0,0,0,0,-5.207,-5.207,0,-5.2122,-5.2122,-5.2123,-5.21,-5.2099,-5.2097,-5.2096,-5.2144,-5.2146,-5.2148,0,0,0,0,0,0,0,0,0,0,0,0,0,-5.1945,-5.1947,-5.207,-5.207,-5.2071,-5.2122,-5.2122,-5.2123,-5.21,-5.2099,-5.2097,-5.2096,-5.2143,-5.2146,-5.2149,0,0,0,0,0,0,0,0,0,0,0,0,0,-5.1998,-5.1948,-5.2069,-5.2066,-5.2066,-5.2122,-5.2122,-5.2123,-5.21,-5.2098,-5.2097,-5.2095,-5.2142,-5.2145,-5.2149,-5.221,0,0,-5.216,-5.2162,0,0,0,0,0,0,0,0,-5.1995,-5.2003,-5.2066,-5.2066,-5.2066,-5.2103,-5.2096,-5.2152,-5.2101,-5.2087,-5.2096,-5.2094,-5.2131,-5.2136,-5.2149,-5.2212,-5.2214,-5.2161,-5.2163,-5.2164,-5.2165,0,0,0,0,0,0,0,-5.1992,-5.2,-5.209,-5.2066,-5.2067,-5.206,-5.2065,-5.2106,-5.2119,-5.2088,-5.2087,-5.2093,-5.2131,-5.2146,-5.215,-5.2215,-5.2161,-5.2164,-5.2166,-5.2167,-5.2331,-5.2333,0,0,0,0,0,0,-5.1989,-5.1998,-5.2088,-5.2092,-5.2026,-5.2064,-5.207,-5.2093,-5.2118,-5.2121,-5.2095,-5.2092,-5.2141,-5.2146,-5.2152,-5.2226,-5.2164,-5.2168,-5.217,-5.2329,-5.2332,-5.2334,0,0,0,0,0,0,-5.1986,-5.1997,-5.2086,-5.2044,-5.2055,-5.2068,-5.2094,-5.2095,-5.211,-5.2124,-5.2125,-5.2108,-5.2139,-5.2147,-5.2196,-5.2227,-5.2169,-5.2173,-5.2327,-5.233,-5.2333,-5.2374,0,0,0,0,0,0,-5.1983,-5.1996,-5.202,-5.2045,-5.2058,-5.2131,-5.2096,-5.2097,-5.2117,-5.2114,-5.2137,-5.2139,-5.2138,-5.2191,-5.22,-5.2231,-5.2176,-5.2324,-5.2328,-5.2332,-5.237,-5.2378,-5.2385,0,0,0,0,0,-5.1978,-5.2028,-5.2022,-5.2033,-5.2088,-5.2133,-5.214,-5.2141,-5.2119,-5.2143,-5.2153,-5.2138,-5.2222,-5.2196,-5.2206,-5.2239,-5.2322,-5.2327,-5.2332,-5.2366,-5.2376,-5.2385,0,0,0,0,0,0,-5.2004,-5.2031,-5.2024,-5.2084,-5.2107,-5.2129,-5.2159,-5.2151,-5.2178,-5.2174,-5.2171,-5.2177,-5.2229,-5.2238,-5.2209,-5.23,-5.2269,-5.2276,-5.2292,-5.2301,-5.2309,-5.2305,-5.2179,0,0,0,0,0,-5.2017,-5.2053,-5.2074,-5.2125,-5.2137,-5.2146,-5.2166,-5.2165,-5.2187,-5.2196,-5.2209,-5.223,-5.2261,-5.2281,-5.2311,-5.2371,-5.2376,-5.2398,-5.2406,-5.2412,-5.2418,-5.2452,-5.2462,-5.235,-5.235,-5.235,0,0,-5.2043,-5.2063,-5.2085,-5.213,-5.2148,-5.2184,-5.2154,-5.2193,-5.222,-5.2201,-5.225,-5.226,-5.2283,-5.2339,-5.2364,-5.2348,-5.2451,-5.2418,-5.2423,-5.2426,-5.2458,-5.2469,-5.2478,-5.2353,-5.2353,-5.2352,0,0,-5.211,-5.2129,-5.2174,-5.2193,-5.2221,-5.2227,-5.2238,-5.2262,-5.2269,-5.2319,-5.2306,-5.2336,-5.239,-5.2408,-5.2424,-5.25,-5.2488,-5.2509,-5.2549,-5.2582,-5.2591,-5.2599,-5.2627,-5.2637,-5.2515,-5.2515,-5.2515,0,-5.2139,-5.2195,-5.2197,-5.2239,-5.2259,-5.2246,-5.2291,-5.2309,-5.2344,-5.2358,-5.2341,-5.241,-5.2424,-5.2484,-5.2503,-5.2516,-5.2528,-5.2507,-5.259,-5.2598,-5.2605,-5.2632,-5.2642,-5.2518,-5.2518,-5.2517,-5.2517,0,-5.223,-5.2269,-5.2301,-5.2339,-5.2363,-5.2405,-5.2413,-5.2437,-5.2434,-5.2442,-5.2492,-5.251,-5.2543,-5.2557,-5.2553,-5.2617,-5.2607,-5.259,-5.2559,-5.2618,-5.2643,-5.2653,-5.2522,-5.2521,-5.252,-5.2519,0,0,-5.2313,-5.2353,-5.2365,-5.2383,-5.2414,-5.2443,-5.2485,-5.2521,-5.2542,-5.2566,-5.2601,-5.2648,-5.2634,-5.2652,-5.265,-5.2679,-5.2739,-5.2658,-5.2658,-5.2673,-5.2811,-5.2825,-5.2836,-5.2731,-5.2733,-5.2735,-5.281,0,-5.2383,-5.246,-5.2464,-5.2533,-5.2569,-5.2558,-5.2595,-5.2617,-5.2626,-5.2657,-5.2665,-5.27,-5.2677,-5.2688,-5.2716,-5.2726,-5.2767,-5.272,-5.2763,-5.2765,-5.2758,-5.2849,-5.2863,-5.2933,-5.2819,-5.2821,-5.2822,0,-5.2475,-5.2506,-5.258,-5.2607,-5.2623,-5.2656,-5.269,-5.2719,-5.2744,-5.2749,-5.2771,-5.2765,-5.2807,-5.2775,-5.2833,-5.2801,-5.2819,-5.2827,-5.2829,-5.2833,-5.2797,-5.2856,-5.2955,-5.2966,-5.2837,-5.2836,-5.2835,0,-5.253,-5.259,-5.2642,-5.2657,-5.269,-5.2714,-5.2729,-5.2752,-5.2774,-5.2802,-5.2816,-5.2848,-5.2866,-5.2891,-5.2894,-5.287,-5.2952,-5.292,-5.2957,-5.2957,-5.2974,-5.2973,-5.3078,-5.2985,-5.2985,-5.2985,-5.2985,0,-5.2608,-5.2653,-5.2668,-5.27,-5.275,-5.2754,-5.2804,-5.2816,-5.2837,-5.2871,-5.2862,-5.2893,-5.2896,-5.2927,-5.293,-5.2978,-5.2986,-5.299,-5.299,-5.2991,-5.2991,-5.3003,-5.2998,-5.2988,-5.2987,-5.2986,-5.2986,0,-5.2677,-5.2689,-5.2745,-5.2773,-5.2782,-5.2818,-5.2841,-5.2871,-5.288,-5.2922,-5.2932,-5.2945,-5.2983,-5.2988,-5.3031,-5.3033,-5.3091,-5.3085,-5.3083,-5.3083,-5.3119,-5.3116,-5.3236,-5.3252,-5.3148,-5.3149,-5.315,0,-5.2727,-5.2762,-5.2795,-5.2818,-5.2835,-5.2872,-5.2895,-5.29,-5.2924,-5.2956,-5.2982,-5.3019,-5.3049,-5.3109,-5.3121,-5.3154,-5.315,-5.3189,-5.3154,-5.3155,-5.3151,-5.3149,-5.3153,-5.3196,-5.3197,-5.3198,-5.3199,0,-5.2813,-5.2818,-5.2853,-5.289,-5.2919,-5.2947,-5.2975,-5.2993,-5.3002,-5.3029,-5.3068,-5.3092,-5.3137,-5.3174,-5.3207,-5.322,-5.3211,-5.321,-5.322,-5.3222,-5.322,-5.3222,-5.3102,-5.3207,-5.3206,-5.3206,-5.3205,-5.3205,-5.2875,-5.2907,-5.2936,-5.2975,-5.2997,-5.3023,-5.3054,-5.3067,-5.3101,-5.314,-5.314,-5.3184,-5.3208,-5.3253,-5.3268,-5.3301,-5.3288,-5.3303,-5.3307,-5.331,-5.3314,-5.3215,-5.3307,-5.3307,-5.3306,-5.3306,-5.3306,0,-5.2962,-5.2981,-5.3017,-5.3057,-5.3088,-5.308,-5.311,-5.3136,-5.3175,-5.32,-5.323,-5.3276,-5.3312,-5.3328,-5.3363,-5.3387,-5.3383,-5.3396,-5.3394,-5.3397,-5.3324,-5.3312,-5.3398,-5.3398,-5.3398,-5.3398,-5.3398,-5.3398,-5.3011,-5.3065,-5.3073,-5.3138,-5.3155,-5.32,-5.3218,-5.3242,-5.3262,-5.3315,-5.3346,-5.3357,-5.3378,-5.3415,-5.3448,-5.3451,-5.3465,-5.3479,-5.3481,-5.3412,-5.3402,-5.3394,-5.3382,-5.3482,-5.3482,-5.3552,-5.3553,-5.3553]}]]